When you browse on this site, cookies collect data to enhance your experience and personalize the content and advertising you see.
Visit our Privacy Policy to learn more. By continuing to use the site, you agree to this use of cookies and data.
  • în România
  • Lista ţărilor
  • Pe 7 zile
  • Temperatura apei
  • Hartă satelitară
  • Meteo pe hartă
  • Widget-uri
  • user-avatar
    Intrare

    Meteo pe oră la Bijeljina

    Astăzi, 23 Aprilie, Marţi

    Timp Temperatura Precipitaţii Vânt Presiune Umiditate
    00:00 +13°C° 0 mm 3 m/s 751 mmHg 70%
    01:00 +13°C° 0 mm 3 m/s 751 mmHg 70%
    02:00 +13°C° 0.1 mm 3 m/s 751 mmHg 72%
    03:00 +13°C° 0.1 mm 4 m/s 751 mmHg 73%
    04:00 +13°C° 0.1 mm 4 m/s 751 mmHg 74%
    05:00 +13°C° 0.2 mm 5 m/s 751 mmHg 77%
    06:00 +13°C° 0.2 mm 5 m/s 751 mmHg 81%
    07:00 +13°C° 0.2 mm 6 m/s 751 mmHg 84%
    08:00 +14°C° 0 mm 7 m/s 751 mmHg 79%
    09:00 +15°C° 0 mm 7 m/s 751 mmHg 74%
    10:00 +16°C° 0 mm 8 m/s 750 mmHg 69%
    11:00 +18°C° 0 mm 8 m/s 750 mmHg 64%
    12:00 +20°C° 0 mm 8 m/s 750 mmHg 58%
    13:00 +22°C° 0 mm 8 m/s 750 mmHg 53%
    14:00 +21°C° 0 mm 7 m/s 750 mmHg 55%
    15:00 +21°C° 0 mm 7 m/s 750 mmHg 57%
    16:00 +20°C° 0 mm 6 m/s 750 mmHg 60%
    17:00 +19°C° 0 mm 6 m/s 750 mmHg 61%
    18:00 +17°C° 0 mm 7 m/s 750 mmHg 62%
    19:00 +16°C° 0 mm 7 m/s 750 mmHg 63%
    20:00 +16°C° 0 mm 7 m/s 751 mmHg 64%
    21:00 +15°C° 0 mm 7 m/s 751 mmHg 65%
    22:00 +15°C° 0 mm 7 m/s 752 mmHg 66%
    23:00 +14°C° 0 mm 6 m/s 752 mmHg 69%

    Mâine, 24 Aprilie, Miercuri

    Timp Temperatura Precipitaţii Vânt Presiune Umiditate
    00:00 +14°C° 0 mm 5 m/s 752 mmHg 73%
    01:00 +13°C° 0 mm 5 m/s 752 mmHg 77%
    02:00 +12°C° 0 mm 4 m/s 752 mmHg 78%
    03:00 +12°C° 0 mm 4 m/s 753 mmHg 80%
    04:00 +11°C° 0 mm 3 m/s 753 mmHg 82%
    05:00 +13°C° 0 mm 3 m/s 753 mmHg 79%
    06:00 +14°C° 0 mm 3 m/s 753 mmHg 76%
    07:00 +16°C° 0 mm 3 m/s 754 mmHg 73%
    08:00 +18°C° 0 mm 3 m/s 754 mmHg 65%
    09:00 +21°C° 0 mm 3 m/s 754 mmHg 58%
    10:00 +24°C° 0 mm 3 m/s 755 mmHg 51%
    11:00 +25°C° 0 mm 2 m/s 755 mmHg 49%
    12:00 +25°C° 0 mm 2 m/s 755 mmHg 48%
    13:00 +26°C° 0 mm 1 m/s 755 mmHg 46%
    14:00 +26°C° 0 mm 2 m/s 755 mmHg 50%
    15:00 +25°C° 0 mm 2 m/s 755 mmHg 53%
    16:00 +25°C° 0 mm 2 m/s 754 mmHg 57%
    17:00 +22°C° 0 mm 3 m/s 755 mmHg 61%
    18:00 +20°C° 0 mm 3 m/s 755 mmHg 66%
    19:00 +19°C° 0 mm 3 m/s 755 mmHg 71%
    20:00 +18°C° 0 mm 2 m/s 755 mmHg 73%
    21:00 +17°C° 0 mm 2 m/s 756 mmHg 74%
    22:00 +16°C° 0 mm 2 m/s 756 mmHg 76%
    23:00 +15°C° 0 mm 2 m/s 757 mmHg 77%

    Poimâine, 25 Aprilie, Joi

    Timp Temperatura Precipitaţii Vânt Presiune Umiditate
    00:00 +15°C° 0 mm 2 m/s 757 mmHg 77%
    01:00 +14°C° 0 mm 1 m/s 757 mmHg 77%
    02:00 +14°C° 0 mm 1 m/s 757 mmHg 78%
    03:00 +14°C° 0 mm 2 m/s 757 mmHg 78%
    04:00 +13°C° 0 mm 2 m/s 757 mmHg 78%
    05:00 +15°C° 0 mm 1 m/s 757 mmHg 75%
    06:00 +16°C° 0 mm 1 m/s 757 mmHg 71%
    07:00 +18°C° 0 mm 1 m/s 757 mmHg 68%
    08:00 +20°C° 0 mm 1 m/s 757 mmHg 62%
    09:00 +23°C° 0 mm 1 m/s 757 mmHg 55%
    10:00 +25°C° 0 mm 2 m/s 757 mmHg 49%
    11:00 +26°C° 0 mm 2 m/s 756 mmHg 47%
    12:00 +27°C° 0 mm 3 m/s 756 mmHg 46%
    13:00 +27°C° 0 mm 3 m/s 755 mmHg 44%
    14:00 +27°C° 0 mm 3 m/s 755 mmHg 47%
    15:00 +27°C° 0 mm 3 m/s 755 mmHg 50%
    16:00 +27°C° 0 mm 4 m/s 754 mmHg 53%
    17:00 +25°C° 0 mm 3 m/s 754 mmHg 61%
    18:00 +22°C° 0 mm 3 m/s 754 mmHg 70%
    19:00 +20°C° 0 mm 3 m/s 754 mmHg 78%
    20:00 +19°C° 0 mm 3 m/s 755 mmHg 80%
    21:00 +18°C° 0 mm 2 m/s 755 mmHg 82%
    22:00 +17°C° 0 mm 2 m/s 755 mmHg 85%
    23:00 +17°C° 0 mm 2 m/s 755 mmHg 84%

    26 Aprilie, Vineri

    Timp Temperatura Precipitaţii Vânt Presiune Umiditate
    00:00 +16°C° 0 mm 2 m/s 755 mmHg 83%
    01:00 +16°C° 0 mm 2 m/s 754 mmHg 83%
    02:00 +15°C° 0 mm 2 m/s 754 mmHg 82%
    03:00 +15°C° 0 mm 1 m/s 754 mmHg 81%
    04:00 +14°C° 0 mm 1 m/s 754 mmHg 80%
    05:00 +16°C° 0 mm 1 m/s 754 mmHg 75%
    06:00 +18°C° 0 mm 1 m/s 754 mmHg 71%
    07:00 +20°C° 0 mm 1 m/s 754 mmHg 67%
    08:00 +22°C° 0 mm 1 m/s 754 mmHg 60%
    09:00 +24°C° 0 mm 1 m/s 754 mmHg 54%
    10:00 +26°C° 0 mm 1 m/s 754 mmHg 48%
    11:00 +27°C° 0 mm 2 m/s 753 mmHg 45%
    12:00 +28°C° 0 mm 2 m/s 753 mmHg 43%
    13:00 +29°C° 0 mm 3 m/s 752 mmHg 41%
    14:00 +29°C° 0 mm 3 m/s 752 mmHg 44%
    15:00 +29°C° 0 mm 3 m/s 752 mmHg 47%
    16:00 +29°C° 0 mm 4 m/s 751 mmHg 50%
    17:00 +27°C° 0 mm 3 m/s 751 mmHg 59%
    18:00 +24°C° 0 mm 3 m/s 751 mmHg 67%
    19:00 +21°C° 0 mm 3 m/s 751 mmHg 76%
    20:00 +20°C° 0 mm 3 m/s 751 mmHg 76%
    21:00 +19°C° 0 mm 2 m/s 751 mmHg 77%
    22:00 +18°C° 0 mm 2 m/s 751 mmHg 77%
    23:00 +18°C° 0 mm 2 m/s 751 mmHg 78%

    27 Aprilie, Sâmbătă

    Timp Temperatura Precipitaţii Vânt Presiune Umiditate
    00:00 +17°C° 0 mm 2 m/s 751 mmHg 79%
    01:00 +16°C° 0 mm 1 m/s 751 mmHg 80%
    02:00 +16°C° 0 mm 2 m/s 751 mmHg 79%
    03:00 +16°C° 0 mm 2 m/s 751 mmHg 77%
    04:00 +15°C° 0 mm 2 m/s 751 mmHg 75%
    05:00 +16°C° 0.1 mm 2 m/s 752 mmHg 74%
    06:00 +17°C° 0.1 mm 3 m/s 752 mmHg 74%
    07:00 +17°C° 0.1 mm 4 m/s 753 mmHg 74%
    08:00 +19°C° 0 mm 4 m/s 753 mmHg 66%
    09:00 +20°C° 0 mm 4 m/s 753 mmHg 59%
    10:00 +21°C° 0 mm 4 m/s 753 mmHg 51%
    11:00 +21°C° 0 mm 5 m/s 753 mmHg 50%
    12:00 +21°C° 0 mm 5 m/s 753 mmHg 49%
    13:00 +21°C° 0 mm 5 m/s 753 mmHg 47%
    14:00 +20°C° 0 mm 5 m/s 753 mmHg 51%
    15:00 +20°C° 0 mm 5 m/s 754 mmHg 55%
    16:00 +19°C° 0 mm 6 m/s 754 mmHg 59%
    17:00 +16°C° 0 mm 5 m/s 754 mmHg 65%
    18:00 +14°C° 0 mm 4 m/s 755 mmHg 71%
    19:00 +13°C° 0 mm 4 m/s 755 mmHg 77%
    20:00 +12°C° 0 mm 3 m/s 756 mmHg 78%
    21:00 +11°C° 0 mm 3 m/s 756 mmHg 78%
    22:00 +10°C° 0 mm 3 m/s 757 mmHg 79%
    23:00 +11°C° 0 mm 3 m/s 757 mmHg 75%

    28 Aprilie, Duminică

    Timp Temperatura Precipitaţii Vânt Presiune Umiditate
    00:00 +12°C° 0 mm 4 m/s 757 mmHg 72%
    01:00 +12°C° 0 mm 4 m/s 757 mmHg 68%
    02:00 +12°C° 0.2 mm 4 m/s 757 mmHg 72%
    03:00 +12°C° 0.2 mm 4 m/s 757 mmHg 77%
    04:00 +10°C° 0.2 mm 5 m/s 757 mmHg 82%
    05:00 +10°C° 0.3 mm 5 m/s 757 mmHg 83%
    06:00 +10°C° 0.3 mm 5 m/s 757 mmHg 84%
    07:00 +10°C° 0.3 mm 6 m/s 757 mmHg 86%
    08:00 +10°C° 0.4 mm 6 m/s 757 mmHg 86%
    09:00 +9°C° 0.4 mm 6 m/s 757 mmHg 86%
    10:00 +9°C° 0.4 mm 6 m/s 757 mmHg 87%
    11:00 +9°C° 0.4 mm 5 m/s 757 mmHg 86%
    12:00 +10°C° 0.4 mm 5 m/s 757 mmHg 85%
    13:00 +11°C° 0.4 mm 4 m/s 757 mmHg 84%
    14:00 +11°C° 0.1 mm 4 m/s 757 mmHg 84%
    15:00 +11°C° 0.1 mm 3 m/s 757 mmHg 83%
    16:00 +11°C° 0.1 mm 3 m/s 757 mmHg 83%
    17:00 +11°C° 0 mm 3 m/s 757 mmHg 83%
    18:00 +12°C° 0 mm 2 m/s 757 mmHg 83%
    19:00 +10°C° 0 mm 2 m/s 757 mmHg 83%
    20:00 +10°C° 0 mm 2 m/s 758 mmHg 83%
    21:00 +9°C° 0 mm 2 m/s 758 mmHg 84%
    22:00 +8°C° 0 mm 2 m/s 758 mmHg 84%
    23:00 +8°C° 0 mm 2 m/s 758 mmHg 85%
    Arată mai mult